Regional Weather Roundup
Issued by NWS

Home | Current Version | Previous Version | Graphics & Text | Print | Product List | Glossary On
Versions: 1 2 3 4 5 6 7 8 9 10 11 12 13 14 15 16 17 18 19 20 21 22 23 24 25 26 27 28 29 30 31 32 33 34 35 36 37 38 39 40 41 42 43 44 45 46 47 48 49 50
000
ASUS43 KMKX 050700
RWRWI

WISCONSIN REGIONAL WEATHER ROUNDUP
NATIONAL WEATHER SERVICE MILWAUKEE/SULLIVAN WI
200 AM CDT TUE MAY 05 2015

NOTE: "FAIR" INDICATES FEW OR NO CLOUDS BELOW 12,000 FEET WITH NO
SIGNIFICANT WEATHER AND/OR OBSTRUCTIONS TO VISIBILITY.

WIZ001-002-006>008-014>016-023>028-050800-
NORTHWEST WISCONSIN

CITY           SKY/WX    TMP DP  RH WIND       PRES   REMARKS
SUPERIOR ARPT  CLEAR     36  32  85 S5        30.26R WCI  32
ASHLAND        CLEAR     35  33  92 W3        30.27R
HAYWARD        CLEAR     37  31  78 CALM      30.26R
SIREN          FAIR      37  29  75 CALM      30.25R
CUMBERLAND     CLEAR     46  23  39 NE5       30.24R
RICE LAKE      CLEAR     43  35  73 CALM      30.26R
CHETEK         CLEAR     53  28  37 NE3       30.24R
LADYSMITH      CLEAR     50  22  34 E5        30.27R
EAU CLAIRE     NOT AVBL
MENOMONIE      PTCLDY    51  35  53 CALM      30.22R
NEW RICHMOND   CLEAR     47  30  51 NE5       30.22S
OSCEOLA        CLEAR     43  37  80 CALM      30.25R
$$

WIZ003>005-009-010-017-018-050800-
NORTH CENTRAL WISCONSIN

CITY           SKY/WX    TMP DP  RH WIND       PRES   REMARKS
MANITOWISH WTR CLEAR     35  33  94 CALM      30.27R
ARBOR VITAE    CLEAR     44  31  60 CALM      30.27R
WOODRUFF       CLEAR     44  31  60 CALM      30.27R
RHINELANDER    CLEAR     47  37  68 CALM      30.30R
EAGLE RIVER    CLEAR     35  30  82 CALM      30.28R
LAND O LAKES   CLEAR     34  33  93 CALM      30.29R
PHILLIPS       FAIR      42  25  50 CALM      30.26R
TOMAHAWK       CLEAR     37  32  81 CALM      30.28S
MEDFORD        PTCLDY    49  37  63 E7        30.26R
MERRILL        PTCLDY    45  40  80 E5        30.27R
$$

WIZ029-030-035-036-043>047-050800-
CENTRAL WISCONSIN

CITY           SKY/WX    TMP DP  RH WIND       PRES   REMARKS
WAUSAU         MOCLDY    49  38  65 E6        30.26R
MOSINEE        MOCLDY    46  37  71 E6        30.27R
MARSHFIELD     CLOUDY    50  39  66 E8        30.24R
STEVENS POINT  CLOUDY    48  38  67 NE7       30.26R
WAUPACA        CLOUDY    52  39  61 NE3       30.26R
WAUTOMA        NOT AVBL
WISC RAPIDS    CLOUDY    52  38  58 E8        30.25R
CAMP DOUGLAS   NOT AVBL
$$

WIZ011>013-019>022-031-037>040-048>050-050800-
NORTHEAST WISCONSIN

CITY           SKY/WX    TMP DP  RH WIND       PRES   REMARKS
ANTIGO         PTCLDY    46  34  64 E3        30.28R
SHAWANO        MOCLDY    52  38  57 E7        30.28R
OCONTO         CLOUDY    49  37  64 E3        30.27S
STURGEON BAY   CLOUDY    46  32  57 NE7       30.30R
GREEN BAY      CLOUDY    51  37  58 NE9       30.26R
MANITOWOC      NOT AVBL
APPLETON       CLOUDY    50  32  50 NE5       30.25R
CLINTONVILLE   CLOUDY    46  37  71 NE3       30.26R
OSHKOSH        CLOUDY    54  32  43 E5        30.23S
$$

WIZ032>034-041-042-053>061-050800-
SOUTHWEST WISCONSIN

CITY           SKY/WX    TMP DP  RH WIND       PRES   REMARKS
LA CROSSE      CLOUDY    55  46  71 N3        30.16F
SPARTA         CLOUDY    47  41  78 CALM      30.20R
VIROQUA        CLOUDY    56  44  65 E7        30.18S
BOSCOBEL       RAIN      59  44  57 CALM      30.17R
PRAIRIE DU CHI LGT RAIN  61  54  77 E9        30.14S
PLATTEVILLE    CLOUDY    53  48  83 E12       30.15S
$$

WIZ056-057-062-063-064-067-068-050800-
SOUTH CENTRAL WISCONSIN

CITY           SKY/WX    TMP DP  RH WIND       PRES   REMARKS
REEDSBURG      CLOUDY    56  39  53 E6        30.19S
BARABOO/DELLS    N/A     55  38  52 E7        30.21R
LONE ROCK      NOT AVBL
MINERAL POINT  CLOUDY    55  41  58 E9G18     30.17R
MADISON        CLOUDY    57  38  48 SE7       30.19S
MIDDLETON      CLOUDY    59  35  40 SE5       30.20S
WATERTOWN      CLOUDY    55  38  51 E7        30.19F
MONROE         DRIZZLE   50  45  81 E10       30.15F
JANESVILLE     LGT RAIN  54  43  66 E7        30.18F
$$

WIZ051-052-058>065-066-070>072-050800-
SOUTHEAST WISCONSIN

CITY           SKY/WX    TMP DP  RH WIND       PRES   REMARKS
MILWAUKEE      CLOUDY    52  34  50 N7        30.20F
WAUKESHA       CLOUDY    52  34  50 NE5       30.22S
MILWAUKEE/TIMM CLOUDY    52  32  46 N7        30.22F
RACINE         CLOUDY    51  36  56 N5        30.22S
BURLINGTON     CLOUDY    50  43  75 CALM      30.20S
KENOSHA        CLOUDY    51  40  65 W3        30.21R
FOND DU LAC    CLOUDY    53  31  42 NE8       30.22F
SHEBOYGAN      CLOUDY    46  36  68 NE6       30.23S
WEST BEND      CLOUDY    50  34  53 NE6       30.22F
JUNEAU         CLOUDY    55  37  52 NE5       30.22S
$$

LSZ147-162-050800-
LAKE SUPERIOR

STATION/POSITION TIME  TEMP    WIND        PRES    WAVE
                       AIR SEA DIR/SP/G            HT/PER
                 (UTC) (F)     (DEG/KT/KT) (MB)    (FT/S)
W MID LAKE BUOY  0550   43 35  110/  2/  2 1025.3R   0
DEVILS ISLAND    0600   51     100/  7/  8 1025.0R
PORT WING        0640   40      CALM  /  4 1024.4R
SAXON HARBOR     0600   41        CALM     1023.7S
$$

LMZ867-665-643>646-050800-
LAKE MICHIGAN

STATION/POSITION TIME  TEMP    WIND        PRES    WAVE
                       AIR SEA DIR/SP/G            HT/PER
                 (UTC) (F)     (DEG/KT/KT) (MB)    (FT/S)
CHAMBERS ISLAND  0600   49      70/  4/  7 1025.4S
NORTHPORT PIER   0600   44     330/  2/  2 1025.4R
SISTER BAY       0517   45        CALM       N/A
KEWAUNEE LAKESHO 0618   47      30/  8/ 11 1023.8R
SHEBOYGAN LAKESH 0600   48      20/ 11/ 14 1024.2R
PORT WASHINGTON  0600   53      10/  4/  7 1024.0
ATWATER BUOY     0600   48     340/  6/  6 1024.4R
MILWAUKEE LAKESH 0600   53      10/  3/  4   N/A
KENOSHA   LAKESH 0600   51      20/ 13/ 13 1022.0F
$$

TC  - TEMPERATURE IN CELSIUS
VSB - VISIBILITY IN STATUTE MILES
WCI - WIND CHILL INDEX
HX  - HEAT INDEX



USA.gov is the U.S. government's official web portal to all federal, state and local government web resources and services.